contact:dominique.lefevre@mio.osupytheas.fr, maurice.libes@osupytheas.fr, didier.mallarino@osupytheas.fr
Project:EMSO http://www.emso-fr.org/EMSO-France
Depth: 2436.0 m
Title:EMSO Ligure Ouest : Data MII capteur MICROCAT
DateTime_Computer,Latitude,Longitude,Temperature,Conductivity,Pressure,DateTime_Instrument
DateTime_Computer,Latitude,Longitude,degC,S m-1,dbar,DateTime_Instrument
2021-08-15T00:02:18Z,42.805,6.029,13.3002,4.60014,2470.287,2021-8-15T02:03:37Z
2021-08-15T00:05:21Z,42.805,6.029,13.3002,4.60014,2470.287,2021-8-15T02:06:40Z
2021-08-15T00:08:25Z,42.805,6.029,13.3000,4.60014,2470.273,2021-8-15T02:09:43Z
2021-08-15T00:11:28Z,42.805,6.029,13.2996,4.60013,2470.297,2021-8-15T02:12:46Z
2021-08-15T00:14:31Z,42.805,6.029,13.2998,4.60011,2470.264,2021-8-15T02:15:49Z
2021-08-15T00:17:34Z,42.805,6.029,13.3000,4.60016,2470.273,2021-8-15T02:18:52Z
2021-08-15T00:20:37Z,42.805,6.029,13.2997,4.60014,2470.287,2021-8-15T02:21:55Z
2021-08-15T00:23:40Z,42.805,6.029,13.2997,4.60014,2470.287,2021-8-15T02:24:59Z
2021-08-15T00:26:43Z,42.805,6.029,13.2999,4.60011,2470.264,2021-8-15T02:28:02Z
2021-08-15T00:29:46Z,42.805,6.029,13.2998,4.60015,2470.297,2021-8-15T02:31:05Z
2021-08-15T00:32:50Z,42.805,6.029,13.2999,4.60012,2470.273,2021-8-15T02:34:08Z
2021-08-15T00:35:53Z,42.805,6.029,13.2997,4.60011,2470.264,2021-8-15T02:37:11Z
2021-08-15T00:38:56Z,42.805,6.029,13.2997,4.60014,2470.334,2021-8-15T02:40:14Z
2021-08-15T00:41:59Z,42.805,6.029,13.2999,4.60015,2470.297,2021-8-15T02:43:17Z
2021-08-15T00:45:02Z,42.805,6.029,13.3004,4.60013,2470.227,2021-8-15T02:46:20Z
2021-08-15T00:48:05Z,42.805,6.029,13.3000,4.60011,2470.227,2021-8-15T02:49:24Z
2021-08-15T00:51:08Z,42.805,6.029,13.3000,4.60013,2470.227,2021-8-15T02:52:27Z
2021-08-15T00:54:11Z,42.805,6.029,13.3000,4.60015,2470.25,2021-8-15T02:55:30Z
2021-08-15T00:57:15Z,42.805,6.029,13.3004,4.60011,2470.264,2021-8-15T02:58:33Z
2021-08-15T01:00:18Z,42.805,6.029,13.2998,4.60012,2470.273,2021-8-15T03:01:36Z
2021-08-15T01:03:21Z,42.805,6.029,13.3000,4.60012,2470.287,2021-8-15T03:04:39Z
2021-08-15T01:06:24Z,42.805,6.029,13.3000,4.60013,2470.273,2021-8-15T03:07:42Z
2021-08-15T01:09:27Z,42.805,6.029,13.3000,4.60013,2470.25,2021-8-15T03:10:45Z
2021-08-15T01:12:30Z,42.805,6.029,13.2998,4.60011,2470.25,2021-8-15T03:13:49Z
2021-08-15T01:15:33Z,42.805,6.029,13.3000,4.60012,2470.25,2021-8-15T03:16:52Z
2021-08-15T01:18:36Z,42.805,6.029,13.3001,4.60011,2470.227,2021-8-15T03:19:55Z
2021-08-15T01:21:39Z,42.805,6.029,13.3001,4.60011,2470.287,2021-8-15T03:22:58Z
2021-08-15T01:24:43Z,42.805,6.029,13.2998,4.60012,2470.24,2021-8-15T03:26:01Z
2021-08-15T01:27:46Z,42.805,6.029,13.3001,4.60011,2470.264,2021-8-15T03:29:04Z
2021-08-15T01:30:49Z,42.805,6.029,13.3004,4.60015,2470.25,2021-8-15T03:32:07Z
2021-08-15T01:33:52Z,42.805,6.029,13.2999,4.60011,2470.25,2021-8-15T03:35:10Z
2021-08-15T01:36:55Z,42.805,6.029,13.2996,4.60011,2470.25,2021-8-15T03:38:14Z
2021-08-15T01:39:58Z,42.805,6.029,13.2996,4.60011,2470.264,2021-8-15T03:41:17Z
2021-08-15T01:43:01Z,42.805,6.029,13.3000,4.60014,2470.227,2021-8-15T03:44:20Z
2021-08-15T01:46:04Z,42.805,6.029,13.3003,4.60014,2470.25,2021-8-15T03:47:23Z
2021-08-15T01:49:08Z,42.805,6.029,13.2999,4.60013,2470.25,2021-8-15T03:50:26Z
2021-08-15T01:52:11Z,42.805,6.029,13.2997,4.60014,2470.213,2021-8-15T03:53:29Z
2021-08-15T01:55:14Z,42.805,6.029,13.2998,4.60011,2470.287,2021-8-15T03:56:32Z
2021-08-15T01:58:17Z,42.805,6.029,13.2998,4.60013,2470.24,2021-8-15T03:59:35Z
2021-08-15T02:01:20Z,42.805,6.029,13.2998,4.60011,2470.217,2021-8-15T04:02:38Z
2021-08-15T02:04:23Z,42.805,6.029,13.2997,4.60013,2470.24,2021-8-15T04:05:42Z
2021-08-15T02:07:26Z,42.805,6.029,13.2998,4.60011,2470.24,2021-8-15T04:08:45Z
2021-08-15T02:10:29Z,42.805,6.029,13.3000,4.60013,2470.227,2021-8-15T04:11:48Z
2021-08-15T02:13:33Z,42.805,6.029,13.3003,4.60014,2470.24,2021-8-15T04:14:51Z
2021-08-15T02:16:36Z,42.805,6.029,13.2998,4.60011,2470.24,2021-8-15T04:17:54Z
2021-08-15T02:19:39Z,42.805,6.029,13.2997,4.60011,2470.18,2021-8-15T04:20:57Z
2021-08-15T02:22:42Z,42.805,6.029,13.2998,4.60011,2470.18,2021-8-15T04:24:00Z
2021-08-15T02:25:45Z,42.805,6.029,13.2995,4.60012,2470.203,2021-8-15T04:27:03Z
2021-08-15T02:28:48Z,42.805,6.029,13.3004,4.60011,2470.18,2021-8-15T04:30:07Z
2021-08-15T02:31:51Z,42.805,6.029,13.2998,4.60011,2470.217,2021-8-15T04:33:10Z
2021-08-15T02:34:54Z,42.805,6.029,13.3000,4.60009,2470.203,2021-8-15T04:36:13Z
2021-08-15T02:37:58Z,42.805,6.029,13.3004,4.60011,2470.24,2021-8-15T04:39:16Z
2021-08-15T02:41:01Z,42.805,6.029,13.2998,4.60010,2470.217,2021-8-15T04:42:19Z
2021-08-15T02:44:04Z,42.805,6.029,13.2997,4.60011,2470.203,2021-8-15T04:45:22Z
2021-08-15T02:47:07Z,42.805,6.029,13.3004,4.60010,2470.18,2021-8-15T04:48:25Z
2021-08-15T02:50:10Z,42.805,6.029,13.2998,4.60010,2470.18,2021-8-15T04:51:28Z
2021-08-15T02:53:13Z,42.805,6.029,13.3001,4.60010,2470.203,2021-8-15T04:54:32Z
2021-08-15T02:56:16Z,42.805,6.029,13.2999,4.60012,2470.18,2021-8-15T04:57:35Z
2021-08-15T02:59:19Z,42.805,6.029,13.3000,4.60010,2470.194,2021-8-15T05:00:38Z
2021-08-15T03:02:23Z,42.805,6.029,13.3000,4.60009,2470.194,2021-8-15T05:03:41Z
2021-08-15T03:05:26Z,42.805,6.029,13.3002,4.60011,2470.18,2021-8-15T05:06:44Z
2021-08-15T03:08:29Z,42.805,6.029,13.2996,4.60013,2470.203,2021-8-15T05:09:47Z
2021-08-15T03:11:32Z,42.805,6.029,13.3000,4.60010,2470.171,2021-8-15T05:12:50Z
2021-08-15T03:14:35Z,42.805,6.029,13.2998,4.60010,2470.203,2021-8-15T05:15:53Z
2021-08-15T03:17:38Z,42.805,6.029,13.2998,4.60010,2470.156,2021-8-15T05:18:57Z
2021-08-15T03:20:41Z,42.805,6.029,13.2998,4.60011,2470.194,2021-8-15T05:22:00Z
2021-08-15T03:23:44Z,42.805,6.029,13.2998,4.60010,2470.203,2021-8-15T05:25:03Z
2021-08-15T03:26:47Z,42.805,6.029,13.2999,4.60010,2470.18,2021-8-15T05:28:06Z
2021-08-15T03:29:51Z,42.805,6.029,13.3000,4.60013,2470.18,2021-8-15T05:31:09Z
2021-08-15T03:32:54Z,42.805,6.029,13.3001,4.60011,2470.194,2021-8-15T05:34:12Z
2021-08-15T03:35:57Z,42.805,6.029,13.2996,4.60010,2470.194,2021-8-15T05:37:15Z
2021-08-15T03:39:00Z,42.805,6.029,13.3000,4.60009,2470.156,2021-8-15T05:40:18Z
2021-08-15T03:42:03Z,42.805,6.029,13.3000,4.60010,2470.194,2021-8-15T05:43:22Z
2021-08-15T03:45:06Z,42.805,6.029,13.2998,4.60009,2470.18,2021-8-15T05:46:25Z
2021-08-15T03:48:09Z,42.805,6.029,13.3000,4.60010,2470.217,2021-8-15T05:49:28Z
2021-08-15T03:51:12Z,42.805,6.029,13.3001,4.60011,2470.156,2021-8-15T05:52:31Z
2021-08-15T03:54:16Z,42.805,6.029,13.3000,4.60010,2470.18,2021-8-15T05:55:34Z
2021-08-15T03:57:19Z,42.805,6.029,13.2999,4.60014,2470.156,2021-8-15T05:58:37Z
2021-08-15T04:00:22Z,42.805,6.029,13.2996,4.60010,2470.156,2021-8-15T06:01:40Z
2021-08-15T04:03:25Z,42.805,6.029,13.2997,4.60011,2470.156,2021-8-15T06:04:43Z
2021-08-15T04:06:28Z,42.805,6.029,13.2996,4.60009,2470.156,2021-8-15T06:07:47Z
2021-08-15T04:09:31Z,42.805,6.029,13.3000,4.60011,2470.171,2021-8-15T06:10:50Z
2021-08-15T04:12:34Z,42.805,6.029,13.2998,4.60009,2470.147,2021-8-15T06:13:53Z
2021-08-15T04:15:37Z,42.805,6.029,13.3000,4.60011,2470.171,2021-8-15T06:16:56Z
2021-08-15T04:18:41Z,42.805,6.029,13.2998,4.60009,2470.171,2021-8-15T06:19:59Z
2021-08-15T04:21:44Z,42.805,6.029,13.3000,4.60012,2470.147,2021-8-15T06:23:02Z
2021-08-15T04:24:47Z,42.805,6.029,13.3001,4.60009,2470.156,2021-8-15T06:26:05Z
2021-08-15T04:27:50Z,42.805,6.029,13.3002,4.60009,2470.147,2021-8-15T06:29:08Z
2021-08-15T04:30:53Z,42.805,6.029,13.2996,4.60010,2470.133,2021-8-15T06:32:11Z
2021-08-15T04:33:56Z,42.805,6.029,13.2999,4.60009,2470.11,2021-8-15T06:35:15Z
2021-08-15T04:36:59Z,42.805,6.029,13.2999,4.60009,2470.156,2021-8-15T06:38:18Z
2021-08-15T04:40:02Z,42.805,6.029,13.3000,4.60010,2470.156,2021-8-15T06:41:21Z
2021-08-15T04:43:06Z,42.805,6.029,13.3002,4.60011,2470.156,2021-8-15T06:44:24Z
2021-08-15T04:46:09Z,42.805,6.029,13.3000,4.60010,2470.147,2021-8-15T06:47:27Z
2021-08-15T04:49:12Z,42.805,6.029,13.2996,4.60010,2470.147,2021-8-15T06:50:30Z
2021-08-15T04:52:15Z,42.805,6.029,13.3000,4.60009,2470.11,2021-8-15T06:53:33Z
2021-08-15T04:55:18Z,42.805,6.029,13.3001,4.60010,2470.133,2021-8-15T06:56:36Z
2021-08-15T04:58:21Z,42.805,6.029,13.2999,4.60009,2470.156,2021-8-15T06:59:40Z
2021-08-15T05:01:24Z,42.805,6.029,13.2999,4.60012,2470.124,2021-8-15T07:02:43Z
2021-08-15T05:04:27Z,42.805,6.029,13.2995,4.60009,2470.156,2021-8-15T07:05:46Z
2021-08-15T05:07:31Z,42.805,6.029,13.2999,4.60011,2470.133,2021-8-15T07:08:49Z
2021-08-15T05:10:34Z,42.805,6.029,13.2998,4.60009,2470.11,2021-8-15T07:11:52Z
2021-08-15T05:13:37Z,42.805,6.029,13.3000,4.60011,2470.133,2021-8-15T07:14:55Z
2021-08-15T05:16:40Z,42.805,6.029,13.3000,4.60009,2470.124,2021-8-15T07:17:58Z
2021-08-15T05:19:43Z,42.805,6.029,13.3002,4.60009,2470.156,2021-8-15T07:21:01Z
2021-08-15T05:22:46Z,42.805,6.029,13.3001,4.60009,2470.171,2021-8-15T07:24:05Z
2021-08-15T05:25:49Z,42.805,6.029,13.2998,4.60010,2470.1,2021-8-15T07:27:08Z
2021-08-15T05:28:52Z,42.805,6.029,13.2997,4.60009,2470.147,2021-8-15T07:30:11Z
2021-08-15T05:31:56Z,42.805,6.029,13.3001,4.60009,2470.11,2021-8-15T07:33:14Z
2021-08-15T05:34:59Z,42.805,6.029,13.2997,4.60013,2470.11,2021-8-15T07:36:17Z
2021-08-15T05:38:02Z,42.805,6.029,13.2999,4.60009,2470.11,2021-8-15T07:39:20Z
2021-08-15T05:41:05Z,42.805,6.029,13.2999,4.60009,2470.11,2021-8-15T07:42:23Z
2021-08-15T05:44:08Z,42.805,6.029,13.3000,4.60009,2470.124,2021-8-15T07:45:26Z
2021-08-15T05:47:11Z,42.805,6.029,13.3001,4.60009,2470.087,2021-8-15T07:48:30Z
2021-08-15T05:50:14Z,42.805,6.029,13.3002,4.60009,2470.1,2021-8-15T07:51:33Z
2021-08-15T05:53:17Z,42.805,6.029,13.3000,4.60009,2470.11,2021-8-15T07:54:36Z
2021-08-15T05:56:21Z,42.805,6.029,13.3000,4.60011,2470.124,2021-8-15T07:57:39Z
2021-08-15T05:59:24Z,42.805,6.029,13.2998,4.60014,2470.147,2021-8-15T08:00:42Z
2021-08-15T06:02:27Z,42.805,6.029,13.3000,4.60009,2470.124,2021-8-15T08:03:45Z
2021-08-15T06:05:30Z,42.805,6.029,13.3000,4.60010,2470.087,2021-8-15T08:06:48Z
2021-08-15T06:08:33Z,42.805,6.029,13.2998,4.60009,2470.133,2021-8-15T08:09:51Z
2021-08-15T06:11:36Z,42.805,6.029,13.3000,4.60010,2470.133,2021-8-15T08:12:55Z
2021-08-15T06:14:39Z,42.805,6.029,13.2998,4.60009,2470.11,2021-8-15T08:15:58Z
2021-08-15T06:17:42Z,42.805,6.029,13.3001,4.60009,2470.1,2021-8-15T08:19:01Z
2021-08-15T06:20:45Z,42.805,6.029,13.2998,4.60010,2470.087,2021-8-15T08:22:04Z
2021-08-15T06:23:49Z,42.805,6.029,13.3000,4.60008,2470.063,2021-8-15T08:25:07Z
2021-08-15T06:26:52Z,42.805,6.029,13.2997,4.60008,2470.077,2021-8-15T08:28:10Z
2021-08-15T06:29:55Z,42.805,6.029,13.2999,4.60007,2470.087,2021-8-15T08:31:13Z
2021-08-15T06:32:58Z,42.805,6.029,13.3001,4.60009,2470.124,2021-8-15T08:34:16Z
2021-08-15T06:36:01Z,42.805,6.029,13.2997,4.60008,2470.087,2021-8-15T08:37:20Z
2021-08-15T06:39:04Z,42.805,6.029,13.2996,4.60008,2470.133,2021-8-15T08:40:23Z
2021-08-15T06:42:07Z,42.805,6.029,13.2998,4.60008,2470.1,2021-8-15T08:43:26Z
2021-08-15T06:45:10Z,42.805,6.029,13.2999,4.60008,2470.1,2021-8-15T08:46:29Z
2021-08-15T06:48:14Z,42.805,6.029,13.3000,4.60009,2470.124,2021-8-15T08:49:32Z
2021-08-15T06:51:17Z,42.805,6.029,13.2998,4.60008,2470.124,2021-8-15T08:52:35Z
2021-08-15T06:54:20Z,42.805,6.029,13.2999,4.60007,2470.087,2021-8-15T08:55:38Z
2021-08-15T06:57:23Z,42.805,6.029,13.2997,4.60007,2470.1,2021-8-15T08:58:41Z
2021-08-15T07:00:26Z,42.805,6.029,13.2998,4.60009,2470.1,2021-8-15T09:01:45Z
2021-08-15T07:03:29Z,42.805,6.029,13.2997,4.60008,2470.11,2021-8-15T09:04:48Z
2021-08-15T07:06:32Z,42.805,6.029,13.3000,4.60007,2470.124,2021-8-15T09:07:51Z
2021-08-15T07:09:35Z,42.805,6.029,13.2998,4.60007,2470.077,2021-8-15T09:10:54Z
2021-08-15T07:12:39Z,42.805,6.029,13.2995,4.60009,2470.11,2021-8-15T09:13:57Z
2021-08-15T07:15:42Z,42.805,6.029,13.3000,4.60008,2470.124,2021-8-15T09:17:00Z
2021-08-15T07:18:45Z,42.805,6.029,13.3000,4.60008,2470.087,2021-8-15T09:20:03Z
2021-08-15T07:21:48Z,42.805,6.029,13.2998,4.60008,2470.11,2021-8-15T09:23:06Z
2021-08-15T07:24:51Z,42.805,6.029,13.3000,4.60008,2470.124,2021-8-15T09:26:09Z
2021-08-15T07:27:54Z,42.805,6.029,13.2999,4.60008,2470.124,2021-8-15T09:29:13Z
2021-08-15T07:30:57Z,42.805,6.029,13.2996,4.60007,2470.124,2021-8-15T09:32:16Z
2021-08-15T07:34:00Z,42.805,6.029,13.2995,4.60007,2470.087,2021-8-15T09:35:19Z
2021-08-15T07:37:03Z,42.805,6.029,13.2998,4.60009,2470.11,2021-8-15T09:38:22Z
2021-08-15T07:40:07Z,42.805,6.029,13.2997,4.60008,2470.087,2021-8-15T09:41:25Z
2021-08-15T07:43:10Z,42.805,6.029,13.2999,4.60008,2470.11,2021-8-15T09:44:28Z
2021-08-15T07:46:13Z,42.805,6.029,13.2998,4.60009,2470.1,2021-8-15T09:47:31Z
2021-08-15T07:49:16Z,42.805,6.029,13.2996,4.60008,2470.11,2021-8-15T09:50:34Z
2021-08-15T07:52:19Z,42.805,6.029,13.2993,4.60011,2470.11,2021-8-15T09:53:38Z
2021-08-15T07:55:22Z,42.805,6.029,13.2999,4.60007,2470.087,2021-8-15T09:56:41Z
2021-08-15T07:58:25Z,42.805,6.029,13.2997,4.60007,2470.11,2021-8-15T09:59:44Z
2021-08-15T08:01:28Z,42.805,6.029,13.2999,4.60006,2470.063,2021-8-15T10:02:47Z
2021-08-15T08:04:32Z,42.805,6.029,13.2998,4.60007,2470.11,2021-8-15T10:05:50Z
2021-08-15T08:07:35Z,42.805,6.029,13.2996,4.60007,2470.087,2021-8-15T10:08:53Z
2021-08-15T08:10:38Z,42.805,6.029,13.2996,4.60007,2470.11,2021-8-15T10:11:56Z
2021-08-15T08:13:41Z,42.805,6.029,13.2998,4.60007,2470.133,2021-8-15T10:14:59Z
2021-08-15T08:16:44Z,42.805,6.029,13.2998,4.60007,2470.11,2021-8-15T10:18:03Z
2021-08-15T08:19:47Z,42.805,6.029,13.2996,4.60006,2470.124,2021-8-15T10:21:06Z
2021-08-15T08:22:50Z,42.805,6.029,13.2998,4.60009,2470.133,2021-8-15T10:24:09Z
2021-08-15T08:25:54Z,42.805,6.029,13.3001,4.60009,2470.087,2021-8-15T10:27:12Z
2021-08-15T08:28:57Z,42.805,6.029,13.2997,4.60008,2470.11,2021-8-15T10:30:15Z
2021-08-15T08:32:00Z,42.805,6.029,13.3000,4.60008,2470.11,2021-8-15T10:33:18Z
2021-08-15T08:35:03Z,42.805,6.029,13.2998,4.60007,2470.147,2021-8-15T10:36:21Z
2021-08-15T08:38:06Z,42.805,6.029,13.2993,4.60008,2470.133,2021-8-15T10:39:24Z
2021-08-15T08:41:09Z,42.805,6.029,13.2998,4.60008,2470.11,2021-8-15T10:42:28Z
2021-08-15T08:44:12Z,42.805,6.029,13.2997,4.60007,2470.133,2021-8-15T10:45:31Z
2021-08-15T08:47:15Z,42.805,6.029,13.3000,4.60009,2470.11,2021-8-15T10:48:34Z
2021-08-15T08:50:19Z,42.805,6.029,13.2996,4.60009,2470.133,2021-8-15T10:51:37Z
2021-08-15T08:53:22Z,42.805,6.029,13.2998,4.60009,2470.133,2021-8-15T10:54:40Z
2021-08-15T08:56:25Z,42.805,6.029,13.3000,4.60008,2470.124,2021-8-15T10:57:43Z
2021-08-15T08:59:28Z,42.805,6.029,13.2996,4.60007,2470.147,2021-8-15T11:00:46Z
2021-08-15T09:02:31Z,42.805,6.029,13.2996,4.60008,2470.156,2021-8-15T11:03:50Z
2021-08-15T09:05:34Z,42.805,6.029,13.2994,4.60008,2470.156,2021-8-15T11:06:53Z
2021-08-15T09:08:37Z,42.805,6.029,13.2995,4.60008,2470.171,2021-8-15T11:09:56Z
2021-08-15T09:11:40Z,42.805,6.029,13.2994,4.60008,2470.124,2021-8-15T11:12:59Z
2021-08-15T09:14:44Z,42.805,6.029,13.2993,4.60008,2470.133,2021-8-15T11:16:02Z
2021-08-15T09:17:47Z,42.805,6.029,13.2997,4.60009,2470.156,2021-8-15T11:19:05Z
2021-08-15T09:20:50Z,42.805,6.029,13.2997,4.60008,2470.133,2021-8-15T11:22:08Z
2021-08-15T09:23:53Z,42.805,6.029,13.2993,4.60007,2470.156,2021-8-15T11:25:11Z
2021-08-15T09:26:56Z,42.805,6.029,13.2998,4.60008,2470.156,2021-8-15T11:28:15Z
2021-08-15T09:29:59Z,42.805,6.029,13.2998,4.60008,2470.18,2021-8-15T11:31:18Z
2021-08-15T09:33:02Z,42.805,6.029,13.3001,4.60010,2470.156,2021-8-15T11:34:21Z
2021-08-15T09:36:05Z,42.805,6.029,13.2997,4.60009,2470.133,2021-8-15T11:37:24Z
2021-08-15T09:39:09Z,42.805,6.029,13.2998,4.60007,2470.156,2021-8-15T11:40:27Z
2021-08-15T09:42:12Z,42.805,6.029,13.2997,4.60009,2470.11,2021-8-15T11:43:30Z
2021-08-15T09:45:15Z,42.805,6.029,13.2995,4.60009,2470.194,2021-8-15T11:46:33Z
2021-08-15T09:48:18Z,42.805,6.029,13.2999,4.60009,2470.171,2021-8-15T11:49:36Z
2021-08-15T09:51:21Z,42.805,6.029,13.2994,4.60009,2470.156,2021-8-15T11:52:40Z
2021-08-15T09:54:24Z,42.805,6.029,13.2999,4.60009,2470.18,2021-8-15T11:55:43Z
2021-08-15T09:57:27Z,42.805,6.029,13.2998,4.60011,2470.171,2021-8-15T11:58:46Z
2021-08-15T10:00:30Z,42.805,6.029,13.3000,4.60014,2470.18,2021-8-15T12:01:49Z
2021-08-15T10:03:34Z,42.805,6.029,13.2998,4.60010,2470.156,2021-8-15T12:04:52Z
2021-08-15T10:06:37Z,42.805,6.029,13.2995,4.60009,2470.18,2021-8-15T12:07:55Z
2021-08-15T10:09:40Z,42.805,6.029,13.2998,4.60011,2470.156,2021-8-15T12:10:58Z
2021-08-15T10:12:43Z,42.805,6.029,13.3000,4.60009,2470.156,2021-8-15T12:14:01Z
2021-08-15T10:15:46Z,42.805,6.029,13.2994,4.60009,2470.203,2021-8-15T12:17:05Z
2021-08-15T10:18:49Z,42.805,6.029,13.2994,4.60009,2470.203,2021-8-15T12:20:08Z
2021-08-15T10:21:52Z,42.805,6.029,13.2998,4.60009,2470.18,2021-8-15T12:23:11Z
2021-08-15T10:24:55Z,42.805,6.029,13.2999,4.60008,2470.18,2021-8-15T12:26:14Z
2021-08-15T10:27:59Z,42.805,6.029,13.2998,4.60009,2470.18,2021-8-15T12:29:17Z
2021-08-15T10:31:02Z,42.805,6.029,13.2996,4.60008,2470.203,2021-8-15T12:32:20Z
2021-08-15T10:34:05Z,42.805,6.029,13.2996,4.60008,2470.156,2021-8-15T12:35:23Z
2021-08-15T10:37:08Z,42.805,6.029,13.2998,4.60009,2470.203,2021-8-15T12:38:26Z
2021-08-15T10:40:11Z,42.805,6.029,13.2997,4.60009,2470.18,2021-8-15T12:41:30Z
2021-08-15T10:43:14Z,42.805,6.029,13.2996,4.60008,2470.203,2021-8-15T12:44:33Z
2021-08-15T10:46:17Z,42.805,6.029,13.2996,4.60009,2470.194,2021-8-15T12:47:36Z
2021-08-15T10:49:21Z,42.805,6.029,13.2997,4.60008,2470.194,2021-8-15T12:50:39Z
2021-08-15T10:52:24Z,42.805,6.029,13.2998,4.60011,2470.217,2021-8-15T12:53:42Z
2021-08-15T10:55:27Z,42.805,6.029,13.2999,4.60009,2470.203,2021-8-15T12:56:45Z
2021-08-15T10:58:30Z,42.805,6.029,13.3000,4.60009,2470.24,2021-8-15T12:59:48Z
2021-08-15T11:01:33Z,42.805,6.029,13.3000,4.60009,2470.217,2021-8-15T13:02:52Z
2021-08-15T11:04:36Z,42.805,6.029,13.2998,4.60009,2470.18,2021-8-15T13:05:55Z
2021-08-15T11:07:39Z,42.805,6.029,13.2996,4.60008,2470.18,2021-8-15T13:08:58Z
2021-08-15T11:10:42Z,42.805,6.029,13.2999,4.60010,2470.18,2021-8-15T13:12:01Z
2021-08-15T11:13:46Z,42.805,6.029,13.2998,4.60008,2470.194,2021-8-15T13:15:04Z
2021-08-15T11:16:49Z,42.805,6.029,13.3000,4.60014,2470.18,2021-8-15T13:18:07Z
2021-08-15T11:19:52Z,42.805,6.029,13.2998,4.60015,2470.194,2021-8-15T13:21:10Z
2021-08-15T11:22:55Z,42.805,6.029,13.3001,4.60009,2470.203,2021-8-15T13:24:13Z
2021-08-15T11:25:58Z,42.805,6.029,13.3000,4.60011,2470.217,2021-8-15T13:27:17Z
2021-08-15T11:29:01Z,42.805,6.029,13.3004,4.60009,2470.203,2021-8-15T13:30:20Z
2021-08-15T11:32:04Z,42.805,6.029,13.3000,4.60009,2470.171,2021-8-15T13:33:23Z
2021-08-15T11:35:07Z,42.805,6.029,13.2998,4.60009,2470.194,2021-8-15T13:36:26Z
2021-08-15T11:38:11Z,42.805,6.029,13.3001,4.60009,2470.203,2021-8-15T13:39:29Z
2021-08-15T11:41:14Z,42.805,6.029,13.3000,4.60009,2470.227,2021-8-15T13:42:32Z
2021-08-15T11:44:17Z,42.805,6.029,13.2994,4.60010,2470.194,2021-8-15T13:45:35Z
2021-08-15T11:47:20Z,42.805,6.029,13.2999,4.60009,2470.203,2021-8-15T13:48:38Z
2021-08-15T11:50:23Z,42.805,6.029,13.2998,4.60010,2470.203,2021-8-15T13:51:42Z
2021-08-15T11:53:26Z,42.805,6.029,13.2997,4.60010,2470.194,2021-8-15T13:54:45Z
2021-08-15T11:56:29Z,42.805,6.029,13.3000,4.60009,2470.217,2021-8-15T13:57:48Z
2021-08-15T11:59:32Z,42.805,6.029,13.2998,4.60017,2470.227,2021-8-15T14:00:51Z
2021-08-15T12:02:36Z,42.805,6.029,13.2998,4.60009,2470.156,2021-8-15T14:03:54Z
2021-08-15T12:05:39Z,42.805,6.029,13.2998,4.60008,2470.194,2021-8-15T14:06:57Z
2021-08-15T12:08:42Z,42.805,6.029,13.2998,4.60010,2470.194,2021-8-15T14:10:00Z
2021-08-15T12:11:45Z,42.805,6.029,13.2996,4.60019,2470.18,2021-8-15T14:13:03Z
2021-08-15T12:14:48Z,42.805,6.029,13.2998,4.60009,2470.217,2021-8-15T14:16:07Z
2021-08-15T12:17:51Z,42.805,6.029,13.2995,4.60013,2470.194,2021-8-15T14:19:10Z
2021-08-15T12:20:54Z,42.805,6.029,13.2997,4.60011,2470.18,2021-8-15T14:22:13Z
2021-08-15T12:23:57Z,42.805,6.029,13.2996,4.60015,2470.18,2021-8-15T14:25:16Z
2021-08-15T12:27:01Z,42.805,6.029,13.2996,4.60010,2470.194,2021-8-15T14:28:19Z
2021-08-15T12:30:04Z,42.805,6.029,13.2993,4.60011,2470.217,2021-8-15T14:31:22Z
2021-08-15T12:33:07Z,42.805,6.029,13.2996,4.60011,2470.203,2021-8-15T14:34:25Z
2021-08-15T12:36:10Z,42.805,6.029,13.2998,4.60011,2470.171,2021-8-15T14:37:28Z
2021-08-15T12:39:13Z,42.805,6.029,13.2998,4.60011,2470.194,2021-8-15T14:40:32Z
2021-08-15T12:42:16Z,42.805,6.029,13.2996,4.60011,2470.18,2021-8-15T14:43:35Z
2021-08-15T12:45:19Z,42.805,6.029,13.2995,4.60009,2470.194,2021-8-15T14:46:38Z
2021-08-15T12:48:23Z,42.805,6.029,13.2993,4.60009,2470.194,2021-8-15T14:49:41Z
2021-08-15T12:51:26Z,42.805,6.029,13.2997,4.60009,2470.156,2021-8-15T14:52:44Z
2021-08-15T12:54:29Z,42.805,6.029,13.2996,4.60010,2470.203,2021-8-15T14:55:47Z
2021-08-15T12:57:32Z,42.805,6.029,13.2993,4.60010,2470.217,2021-8-15T14:58:50Z
2021-08-15T13:00:35Z,42.805,6.029,13.2998,4.60011,2470.217,2021-8-15T15:01:53Z
2021-08-15T13:03:38Z,42.805,6.029,13.2996,4.60009,2470.194,2021-8-15T15:04:57Z
2021-08-15T13:06:41Z,42.805,6.029,13.2993,4.60008,2470.156,2021-8-15T15:08:00Z
2021-08-15T13:09:44Z,42.805,6.029,13.2998,4.60015,2470.171,2021-8-15T15:11:03Z
2021-08-15T13:12:48Z,42.805,6.029,13.2997,4.60010,2470.194,2021-8-15T15:14:06Z
2021-08-15T13:15:51Z,42.805,6.029,13.2998,4.60013,2470.171,2021-8-15T15:17:09Z
2021-08-15T13:18:54Z,42.805,6.029,13.3000,4.60009,2470.18,2021-8-15T15:20:12Z
2021-08-15T13:21:57Z,42.805,6.029,13.2996,4.60009,2470.171,2021-8-15T15:23:15Z
2021-08-15T13:25:00Z,42.805,6.029,13.2996,4.60010,2470.203,2021-8-15T15:26:18Z
2021-08-15T13:28:03Z,42.805,6.029,13.2994,4.60009,2470.171,2021-8-15T15:29:22Z
2021-08-15T13:31:06Z,42.805,6.029,13.2998,4.60009,2470.171,2021-8-15T15:32:25Z
2021-08-15T13:34:09Z,42.805,6.029,13.2999,4.60009,2470.156,2021-8-15T15:35:28Z
2021-08-15T13:37:13Z,42.805,6.029,13.2996,4.60010,2470.171,2021-8-15T15:38:31Z
2021-08-15T13:40:16Z,42.805,6.029,13.2997,4.60010,2470.156,2021-8-15T15:41:34Z
2021-08-15T13:43:19Z,42.805,6.029,13.2997,4.60013,2470.156,2021-8-15T15:44:37Z
2021-08-15T13:46:22Z,42.805,6.029,13.2995,4.60011,2470.18,2021-8-15T15:47:40Z
2021-08-15T13:49:25Z,42.805,6.029,13.2999,4.60010,2470.217,2021-8-15T15:50:44Z
2021-08-15T13:52:28Z,42.805,6.029,13.2999,4.60009,2470.147,2021-8-15T15:53:47Z
2021-08-15T13:55:31Z,42.805,6.029,13.3000,4.60011,2470.156,2021-8-15T15:56:50Z
2021-08-15T13:58:34Z,42.805,6.029,13.2996,4.60009,2470.133,2021-8-15T15:59:53Z
2021-08-15T14:01:38Z,42.805,6.029,13.2996,4.60010,2470.18,2021-8-15T16:02:56Z
2021-08-15T14:04:41Z,42.805,6.029,13.2998,4.60009,2470.171,2021-8-15T16:05:59Z
2021-08-15T14:07:44Z,42.805,6.029,13.2996,4.60009,2470.171,2021-8-15T16:09:02Z
2021-08-15T14:10:47Z,42.805,6.029,13.2999,4.60010,2470.171,2021-8-15T16:12:05Z
2021-08-15T14:13:50Z,42.805,6.029,13.2996,4.60009,2470.133,2021-8-15T16:15:09Z
2021-08-15T14:16:53Z,42.805,6.029,13.2999,4.60009,2470.171,2021-8-15T16:18:12Z
2021-08-15T14:19:56Z,42.805,6.029,13.2998,4.60009,2470.171,2021-8-15T16:21:15Z
2021-08-15T14:22:59Z,42.805,6.029,13.2997,4.60011,2470.171,2021-8-15T16:24:18Z
2021-08-15T14:26:03Z,42.805,6.029,13.2996,4.60011,2470.156,2021-8-15T16:27:21Z
2021-08-15T14:29:06Z,42.805,6.029,13.2999,4.60009,2470.171,2021-8-15T16:30:24Z
2021-08-15T14:32:09Z,42.805,6.029,13.3000,4.60009,2470.194,2021-8-15T16:33:27Z
2021-08-15T14:35:12Z,42.805,6.029,13.2998,4.60009,2470.156,2021-8-15T16:36:30Z
2021-08-15T14:38:15Z,42.805,6.029,13.2997,4.60009,2470.11,2021-8-15T16:39:34Z
2021-08-15T14:41:18Z,42.805,6.029,13.2998,4.60009,2470.171,2021-8-15T16:42:37Z
2021-08-15T14:44:21Z,42.805,6.029,13.2996,4.60010,2470.133,2021-8-15T16:45:40Z
2021-08-15T14:47:24Z,42.805,6.029,13.3000,4.60009,2470.147,2021-8-15T16:48:43Z
2021-08-15T14:50:28Z,42.805,6.029,13.2998,4.60011,2470.143,2021-8-15T16:51:46Z
2021-08-15T14:53:31Z,42.805,6.029,13.2998,4.60008,2470.156,2021-8-15T16:54:49Z
2021-08-15T14:56:34Z,42.805,6.029,13.2999,4.60008,2470.203,2021-8-15T16:57:52Z
2021-08-15T14:59:37Z,42.805,6.029,13.2998,4.60010,2470.147,2021-8-15T17:00:55Z
2021-08-15T15:02:40Z,42.805,6.029,13.2993,4.60010,2470.203,2021-8-15T17:03:59Z
2021-08-15T15:05:43Z,42.805,6.029,13.2996,4.60010,2470.171,2021-8-15T17:07:02Z
2021-08-15T15:08:46Z,42.805,6.029,13.2993,4.60009,2470.18,2021-8-15T17:10:05Z
2021-08-15T15:11:49Z,42.805,6.029,13.2996,4.60009,2470.18,2021-8-15T17:13:08Z
2021-08-15T15:14:53Z,42.805,6.029,13.2998,4.60009,2470.156,2021-8-15T17:16:11Z